Location: Leiter
(44.7178°N, 106.2687°W)
Time: 08:44:48
(UTC+00:00)

DX 1 - Pass Details

Date: 10 July 2022
Orbit: 616 x 630 km, 98.4° (Epoch: 17 August)

Event Time Altitude Azimuth Distance (km) Brightness Sun altitude
Rises 05:56:02 0° 354° (N) 2,927 ? -20.9°
Reaches altitude 10° 05:59:32 10° 324° (NW) 2,010 ? -21.1°
Maximum altitude 06:01:12 12° 301° (WNW) 1,871 ? -21.2°
Drops below altitude 10° 06:02:52 10° 279° (W) 2,002 ? -21.3°
Sets 06:06:21 0° 249° (WSW) 2,899 ? -21.5°
